This is the latest recevied weather packets stored in our database for station/object KW4UJ. If no packets are shown the sender has not sent any weather packets the latest 10 day(s).
| Time | Temp. | Humidity | Pressure | Rain* | Wind** | Luminosity | Snow |
|---|---|---|---|---|---|---|---|
| 1777753213 | 15° C | 39% | 1011.5 hPa | 0 mm | - | 123 W/m² | - |
| 1777752908 | 15.56° C | 37% | 1011.5 hPa | 0 mm | - | 163 W/m² | - |
| 1777752605 | 15.56° C | 38% | 1011.6 hPa | 0 mm | - | 508 W/m² | - |
| 1777752301 | 15.56° C | 37% | 1011.5 hPa | 0 mm | - | 535 W/m² | - |
| 1777751999 | 15.56° C | 36% | 1011.7 hPa | 0 mm | - | 438 W/m² | - |
| 1777751696 | 15.56° C | 38% | 1011.8 hPa | 0 mm | - | 542 W/m² | - |
| 1777751392 | 15.56° C | 38% | 1011.8 hPa | 0 mm | - | 416 W/m² | - |
| 1777751089 | 15° C | 39% | 1011.7 hPa | 0 mm | - | 361 W/m² | - |
| 1777750784 | 15° C | 39% | 1011.8 hPa | 0 mm | - | 503 W/m² | - |
| 1777750482 | 15.56° C | 38% | 1012 hPa | 0 mm | - | 206 W/m² | - |
| 1777750178 | 15.56° C | 37% | 1011.8 hPa | 0 mm | - | 468 W/m² | - |
| 1777749875 | 15° C | 38% | 1012 hPa | 0 mm | - | 589 W/m² | - |
| 1777749572 | 14.44° C | 40% | 1012 hPa | 0 mm | - | 191 W/m² | - |
| 1777749269 | 14.44° C | 40% | 1012.3 hPa | 0 mm | - | 185 W/m² | - |
| 1777748967 | 14.44° C | 40% | 1012.4 hPa | 0 mm | - | 174 W/m² | - |
| 1777748664 | 15° C | 38% | 1012.3 hPa | 0 mm | - | 231 W/m² | - |
| 1777748360 | 15° C | 40% | 1012.5 hPa | 0 mm | - | 752 W/m² | - |
| 1777748055 | 13.89° C | 38% | 1012.6 hPa | 0 mm | - | 740 W/m² | - |
| 1777747753 | 13.89° C | 40% | 1012.9 hPa | 0 mm | - | 170 W/m² | - |
| 1777747448 | 14.44° C | 40% | 1012.9 hPa | 0 mm | - | 199 W/m² | - |
| 1777747145 | 15° C | 40% | 1012.7 hPa | 0 mm | - | 220 W/m² | - |
| 1777746841 | 15° C | 39% | 1012.9 hPa | 0 mm | - | 276 W/m² | - |
| 1777746536 | 15° C | 39% | 1012.9 hPa | 0 mm | - | 589 W/m² | - |
| 1777746232 | 15° C | 40% | 1013 hPa | 0 mm | - | 305 W/m² | - |
| 1777745928 | 15° C | 39% | 1013.2 hPa | 0 mm | - | 622 W/m² | - |
* Rain latest hour (hover to see other rain measurements)
** Current wind speed in m/s (hover to see current wind gust speed)